SHT9N EGPH-EGLL

Flight info

Callsign SHT9N
Flight time N/A
Altitude 33000
Route GOSAM P600 FENIK L612 NAVSO DCT AKOMU DCT VAMEB DCT NUGRA
Aircraft A320/M-SDE3FGHIRWY/LB1

Departure

Time 2026-05-04 17:16
Airport Edinburgh Airport (EGPH)

Arrival

Time N/A
Airport London Heathrow Airport (EGLL)
Time Latitude Longitude Altitude Speed Heading
2026-05-04 16:57 55.94789 -3.35605 106 ft 0 kts 208°
2026-05-04 17:07 55.94798 -3.35597 106 ft 4 kts 208°
2026-05-04 17:07 55.94824 -3.35571 107 ft 4 kts 218°
2026-05-04 17:07 55.94835 -3.35540 105 ft 4 kts 289°
2026-05-04 17:08 55.94828 -3.35515 106 ft 4 kts 298°
2026-05-04 17:08 55.94821 -3.35490 109 ft 0 kts 298°
2026-05-04 17:10 55.94823 -3.35498 109 ft 2 kts 298°
2026-05-04 17:11 55.94831 -3.35525 108 ft 5 kts 298°
2026-05-04 17:11 55.94866 -3.35642 108 ft 10 kts 298°
2026-05-04 17:11 55.94945 -3.35855 107 ft 15 kts 331°
2026-05-04 17:12 55.95068 -3.35786 107 ft 13 kts 12°
2026-05-04 17:12 55.95189 -3.35974 103 ft 14 kts 328°
2026-05-04 17:13 55.95411 -3.35460 105 ft 17 kts 60°
2026-05-04 17:14 55.95493 -3.35431 102 ft 0 kts 327°
2026-05-04 17:14 55.95496 -3.35435 102 ft 2 kts 327°
2026-05-04 17:15 55.95512 -3.35453 101 ft 6 kts 327°
2026-05-04 17:15 55.95559 -3.35599 100 ft 0 kts 238°
2026-05-04 17:16 55.95446 -3.35930 101 ft 66 kts 239°
2026-05-04 17:16 55.94104 -3.39957 882 ft 150 kts 243°
2026-05-04 17:17 55.93561 -3.41547 1477 ft 154 kts 243°
2026-05-04 17:17 55.91492 -3.47509 2500 ft 225 kts 241°
2026-05-04 17:18 55.90660 -3.50018 3069 ft 243 kts 249°
2026-05-04 17:18 55.89933 -3.55996 4825 ft 252 kts 263°
2026-05-04 17:19 55.89308 -3.62273 6285 ft 260 kts 262°
2026-05-04 17:19 55.88672 -3.68661 8084 ft 264 kts 261°
2026-05-04 17:20 55.87533 -3.74907 9790 ft 275 kts 234°
2026-05-04 17:20 55.84008 -3.77962 10795 ft 317 kts 186°
2026-05-04 17:20 55.81720 -3.78115 10984 ft 340 kts 185°
2026-05-04 17:21 55.76868 -3.78306 12057 ft 357 kts 184°
2026-05-04 17:21 55.71844 -3.78522 13424 ft 365 kts 185°
2026-05-04 17:22 55.69293 -3.78660 14090 ft 369 kts 185°
2026-05-04 17:22 55.66717 -3.78810 14698 ft 372 kts 185°
2026-05-04 17:23 55.58827 -3.79273 16442 ft 384 kts 185°
2026-05-04 17:23 55.56138 -3.79432 17054 ft 388 kts 185°
2026-05-04 17:23 55.50692 -3.79740 18264 ft 396 kts 185°
2026-05-04 17:24 55.47927 -3.79897 18817 ft 399 kts 185°
2026-05-04 17:25 55.36811 -3.80527 21118 ft 410 kts 184°
2026-05-04 17:25 55.31078 -3.80858 22207 ft 414 kts 184°
2026-05-04 17:26 55.25286 -3.81106 23229 ft 420 kts 180°
2026-05-04 17:26 55.16591 -3.76450 24519 ft 434 kts 155°
2026-05-04 17:27 55.11152 -3.71758 25023 ft 436 kts 155°
2026-05-04 17:27 55.05691 -3.67078 25182 ft 439 kts 155°
2026-05-04 17:28 55.00183 -3.62382 25971 ft 443 kts 155°
2026-05-04 17:29 54.91812 -3.55264 27028 ft 450 kts 155°
2026-05-04 17:29 54.83293 -3.48043 28067 ft 458 kts 155°
2026-05-04 17:30 54.74676 -3.40791 29050 ft 464 kts 155°
2026-05-04 17:31 54.68875 -3.35928 29997 ft 462 kts 154°
2026-05-04 17:31 54.60217 -3.28671 31249 ft 459 kts 154°
2026-05-04 17:32 54.54481 -3.23895 32099 ft 457 kts 155°
2026-05-04 17:33 54.45876 -3.16778 33033 ft 459 kts 154°
2026-05-04 17:33 54.42986 -3.14395 33044 ft 459 kts 154°
2026-05-04 17:34 54.31508 -3.04933 33051 ft 456 kts 154°
2026-05-04 17:35 54.17160 -2.93197 33071 ft 458 kts 153°
2026-05-04 17:36 54.11554 -2.88895 33079 ft 457 kts 155°
2026-05-04 17:36 54.05687 -2.84722 33086 ft 456 kts 156°
2026-05-04 17:37 53.99807 -2.80663 33073 ft 456 kts 160°
2026-05-04 17:37 53.93737 -2.77440 33080 ft 456 kts 160°
2026-05-04 17:38 53.87681 -2.74226 33091 ft 456 kts 160°
2026-05-04 17:38 53.81701 -2.71061 33079 ft 455 kts 160°
2026-05-04 17:39 53.72592 -2.66289 33072 ft 454 kts 161°
2026-05-04 17:39 53.66562 -2.63129 33083 ft 454 kts 160°
2026-05-04 17:40 53.60558 -2.59987 33073 ft 454 kts 160°
2026-05-04 17:40 53.57543 -2.58409 33080 ft 454 kts 160°
2026-05-04 17:41 53.50273 -2.54617 33077 ft 453 kts 160°
2026-05-04 17:41 53.44243 -2.51500 33070 ft 453 kts 160°
2026-05-04 17:42 53.38216 -2.48401 33067 ft 453 kts 160°
2026-05-04 17:42 53.32190 -2.45302 33062 ft 453 kts 160°
2026-05-04 17:43 53.26163 -2.42210 33061 ft 453 kts 160°
2026-05-04 17:43 53.20145 -2.39126 33076 ft 453 kts 160°
2026-05-04 17:44 53.14127 -2.36053 33077 ft 452 kts 160°
2026-05-04 17:44 53.08114 -2.32990 33073 ft 452 kts 160°
2026-05-04 17:45 53.02239 -2.29452 33067 ft 447 kts 149°
2026-05-04 17:45 52.96961 -2.24091 33080 ft 444 kts 145°
2026-05-04 17:46 52.94341 -2.21336 32926 ft 444 kts 145°
2026-05-04 17:46 52.91733 -2.18593 32659 ft 444 kts 145°
2026-05-04 17:46 52.89157 -2.15890 32387 ft 444 kts 145°
2026-05-04 17:46 52.86538 -2.13153 32135 ft 445 kts 145°
2026-05-04 17:47 52.83914 -2.10420 31874 ft 445 kts 145°
2026-05-04 17:47 52.81293 -2.07694 31617 ft 446 kts 145°
2026-05-04 17:47 52.78664 -2.04963 31363 ft 446 kts 145°
2026-05-04 17:47 52.76035 -2.02233 31112 ft 447 kts 145°
2026-05-04 17:48 52.73394 -1.99495 30863 ft 447 kts 147°
2026-05-04 17:48 52.70766 -1.96773 30617 ft 447 kts 148°
2026-05-04 17:48 52.68128 -1.94043 30373 ft 448 kts 148°
2026-05-04 17:48 52.65482 -1.91311 30126 ft 448 kts 148°
2026-05-04 17:49 52.62841 -1.88593 29839 ft 448 kts 148°
2026-05-04 17:49 52.60188 -1.85863 29554 ft 449 kts 148°